sat.trackr.live / text

‹ back to catalog

STARLINK-32673

NORAD 63000 · 2025-031V

PAYLOAD ACTIVE UNKNOWN

§ Identity

Operator
Country
US
Launch date
2025-02-11
Launch site
AFETR
Launch vehicle
Mass (kg)
RCS (m²)

Purposes: comms

External: N2YO · Heavens-Above · Gunter

§ Orbital elements

Epoch: 2026-05-25T04:31:45.071904Z

Period
94.27 min
Inclination
43.0041°
Eccentricity
0.0001652
Mean motion
15.27594824 rev/d
Perigee alt
481.9 km
Apogee alt
484.1 km
Semi-major
6,861.1 km
B*
6.8169e-4
RAAN
71.4031°
Arg perigee
265.3166°
Mean anomaly
94.7497°
Rev number
7,279

§ Raw data

STARLINK-326731 63000U 25031V   26145.18871611  .00018552  00000+0  68169-3 0  99942 63000  43.0041  71.4031 0001652 265.3166  94.7497 15.27594824 72794

JSON: /api/v1/satellites/63000 · /tle

For live sub-satellite position, see the globe view (requires WebGL).

§ Visibility from observer

Set your observer location to see the next 7 days of passes ≥ 10°. The values pass through the URL so the page stays shareable.

No JS? Fill the form by hand. The geolocation button needs JavaScript.